Weather reports worldwide

Advertisment
Eskdalemuir, United Kingdom (3162): temperature & dewpoint: 29.07.2020 15:00:00 - 04.08.2020 15:00:00 (BST)Eskdalemuir, United Kingdom (3162): temperature -20cm & temperature -100cm: 29.07.2020 15:00:00 - 04.08.2020 15:00:00 (BST)Eskdalemuir, United Kingdom (3162): wind speed & gusts: 29.07.2020 15:00:00 - 04.08.2020 15:00:00 (BST)Eskdalemuir, United Kingdom (3162): wind direction: 29.07.2020 15:00:00 - 04.08.2020 15:00:00 (BST)Eskdalemuir, United Kingdom (3162): reduced air pressure: 29.07.2020 15:00:00 - 04.08.2020 15:00:00 (BST)Eskdalemuir, United Kingdom (3162): visibility: 29.07.2020 15:00:00 - 04.08.2020 15:00:00 (BST)Eskdalemuir, United Kingdom (3162): sunshine duration: 29.07.2020 15:00:00 - 04.08.2020 15:00:00 (BST)Eskdalemuir, United Kingdom (3162): precipitation: 29.07.2020 15:00:00 - 04.08.2020 15:00:00 (BST)
Date & Time tt [°C] td [°C] tt -20cm [°C] tt -100cm [°C] ff [km/h] ff [kn] fx [km/h] fx [kn] dd ppp [hPa] vv [km] sd [min] rr [mm]
04.08.2020 15:00:00 13,8 13,7 - - 41 22 63 34 S 1004,6 1,8 0 0,6
04.08.2020 14:00:00 13,6 13,3 - - 34 18 63 34 S 1005,2 5 0 2,8
04.08.2020 13:00:00 12,4 12,1 - - 29 16 50 27 S 1006,8 2,9 0 2,8
04.08.2020 12:00:00 12,2 11,8 - - 28 15 50 27 S 1008,0 2,7 0 3,2
04.08.2020 11:00:00 11,5 11,0 - - 26 14 57 31 S 1009,3 3,9 0 2,4
04.08.2020 10:00:00 11,3 10,5 15,7 13,9 34 18 61 33 SSW 1010,1 9 0 1,8
04.08.2020 09:00:00 11,7 11,3 - - 24 13 46 25 SSW 1010,7 11 0 2,8
04.08.2020 08:00:00 10,4 9,9 - - 15 8 - - S 1011,3 10 0 1,8
04.08.2020 07:00:00 9,8 9,1 - - 9 5 - - SSE 1012,0 8 0 1,0
04.08.2020 06:00:00 10,1 9,5 - - 9 5 - - SSE 1013,1 35 0 0,0
04.08.2020 05:00:00 8,5 7,8 - - 8 4 - - SSE 1013,7 35 0 0,0
04.08.2020 04:00:00 8,1 7,2 - - 0 0 - - N 1014,5 50 0 0,0
04.08.2020 03:00:00 8,3 7,4 - - 2 1 - - E 1015,4 50 0 0,0
04.08.2020 02:00:00 8,1 7,0 - - 2 1 - - S 1016,0 45 0 0,0
04.08.2020 01:00:00 8,3 7,2 - - 4 2 - - SSE 1016,5 50 - 0,0
04.08.2020 00:00:00 8,2 6,9 - - 2 1 - - SSE 1016,7 50 0 0,0
03.08.2020 23:00:00 8,6 6,9 - - 4 2 - - SSE 1016,9 45 0 0,0
03.08.2020 22:00:00 9,1 6,7 - - 9 5 - - W 1016,8 50 0 0,0
03.08.2020 21:00:00 10,9 6,8 - - 9 5 - - WSW 1016,5 50 24 0,0
03.08.2020 20:00:00 12,9 6,7 - - 8 4 - - W 1015,9 50 6 0,0
03.08.2020 19:00:00 12,8 7,1 - - 18 10 - - WNW 1015,9 50 18 0,0
03.08.2020 18:00:00 14,2 8,3 - - 22 12 - - WNW 1015,7 40 6 0,0
03.08.2020 17:00:00 16,0 7,6 - - 13 7 - - WSW 1015,2 35 36 0,0
03.08.2020 16:00:00 16,2 8,5 - - 22 12 - - W 1015,1 45 12 0,0
03.08.2020 15:00:00 15,2 7,6 - - 15 8 - - WSW 1015,4 45 12 0,0
03.08.2020 14:00:00 14,9 7,1 - - 15 8 - - WSW 1015,5 40 18 0,0
03.08.2020 13:00:00 13,9 9,1 - - 13 7 - - W 1015,9 45 6 0,0
03.08.2020 12:00:00 13,3 8,7 - - 8 4 - - W 1016,2 35 6 0,0
03.08.2020 11:00:00 14,3 7,2 - - 16 9 - - SW 1015,7 26 18 0,0
03.08.2020 10:00:00 14,3 7,1 15,7 13,9 16 9 - - W 1015,5 35 42 0,0
03.08.2020 09:00:00 12,3 8,4 - - 13 7 - - W 1015,6 26 42 0,0
03.08.2020 08:00:00 8,4 8,3 - - 5 3 - - SE 1016,0 28 24 0,0
03.08.2020 07:00:00 5,1 5,0 - - 5 3 - - SE 1016,5 40 18 0,0
03.08.2020 06:00:00 3,4 3,2 - - 2 1 - - NNW 1016,5 17 0 0,0
03.08.2020 05:00:00 4,1 3,8 - - 2 1 - - SSW 1016,1 11 0 0,0
03.08.2020 04:00:00 5,0 4,7 - - 5 3 - - S 1015,8 2,4 0 0,0
03.08.2020 03:00:00 6,1 5,5 - - 2 1 - - SE 1015,8 30 0 0,0
03.08.2020 02:00:00 7,2 6,2 - - 4 2 - - ESE 1015,8 27 0 0,0
03.08.2020 01:00:00 9,1 7,9 - - 4 2 - - SE 1015,7 35 - 0,0
03.08.2020 00:00:00 8,7 7,1 - - 8 4 - - W 1015,6 45 0 0,0
02.08.2020 23:00:00 9,3 6,8 - - 13 7 - - WNW 1015,3 50 0 0,0
02.08.2020 22:00:00 10,4 7,6 - - 9 5 - - W 1015,1 50 0 0,0
02.08.2020 21:00:00 12,5 7,4 - - 9 5 - - WSW 1014,5 50 6 0,0
02.08.2020 20:00:00 13,7 7,4 - - 13 7 - - WSW 1014,2 45 0 0,0
02.08.2020 19:00:00 14,2 7,4 - - 11 6 - - W 1013,9 50 30 0,0
02.08.2020 18:00:00 15,3 7,7 - - 11 6 - - W 1013,7 26 6 0,0
02.08.2020 17:00:00 15,8 8,4 - - 21 11 - - W 1013,5 30 12 0,0
02.08.2020 16:00:00 17,2 8,1 - - 18 10 - - WSW 1013,2 40 30 0,0
02.08.2020 15:00:00 17,0 9,1 - - 18 10 - - W 1013,2 40 30 0,0
02.08.2020 14:00:00 16,5 9,5 - - 18 10 - - WSW 1013,4 45 36 0,0
02.08.2020 13:00:00 16,6 11,0 - - 21 11 - - WSW 1013,2 27 12 0,0
02.08.2020 12:00:00 14,7 11,0 - - 5 3 - - SW 1013,3 40 12 0,2
02.08.2020 11:00:00 14,6 10,2 - - 15 8 - - WSW 1013,2 40 18 0,0
02.08.2020 10:00:00 13,7 10,4 15,5 13,7 15 8 - - WSW 1013,1 50 12 0,0
02.08.2020 09:00:00 12,2 10,5 - - 9 5 - - SW 1013,2 35 0 0,0
02.08.2020 08:00:00 11,6 11,1 - - 8 4 - - S 1013,1 40 0 0,0
02.08.2020 07:00:00 10,6 10,3 - - 4 2 - - SSE 1013,2 45 0 0,0
02.08.2020 06:00:00 10,1 9,8 - - 4 2 - - S 1013,1 23 0 0,0
02.08.2020 05:00:00 10,2 9,5 - - 8 4 - - W 1013,0 30 0 0,2
02.08.2020 04:00:00 11,3 10,7 - - 11 6 - - WSW 1012,7 26 0 0,0
02.08.2020 03:00:00 11,1 10,6 - - 9 5 - - SSW 1012,8 30 0 0,2
02.08.2020 02:00:00 11,5 11,3 - - 5 3 - - S 1013,0 13 0 1,2
02.08.2020 01:00:00 11,4 11,2 - - 11 6 - - S 1013,4 9 - 0,6
02.08.2020 00:00:00 11,3 10,9 - - 5 3 - - SE 1013,8 8 0 0,6
01.08.2020 23:00:00 11,7 11,0 - - 5 3 - - SE 1014,2 6 0 0,8
01.08.2020 22:00:00 12,2 10,8 - - 13 7 - - SSW 1014,1 5 0 0,2
01.08.2020 21:00:00 13,5 10,5 - - 15 8 - - SW 1013,8 45 0 0,0
01.08.2020 20:00:00 14,5 10,9 - - 11 6 - - SSW 1013,4 35 0 0,0
01.08.2020 19:00:00 15,6 9,6 - - 8 4 - - SW 1013,3 45 0 0,0
01.08.2020 18:00:00 15,5 8,7 - - 13 7 - - WSW 1013,5 50 0 0,0
01.08.2020 17:00:00 15,9 9,5 - - 15 8 - - WSW 1013,6 40 0 0,0
01.08.2020 16:00:00 16,8 10,7 - - 15 8 - - W 1013,4 40 0 0,0
01.08.2020 15:00:00 16,4 10,0 - - 15 8 - - W 1013,3 28 6 0,0
01.08.2020 14:00:00 17,1 10,1 - - 18 10 - - W 1013,0 40 30 0,0
01.08.2020 13:00:00 16,1 10,0 - - 16 9 - - W 1012,8 29 30 0,0
01.08.2020 12:00:00 14,8 11,6 - - 15 8 - - WNW 1012,9 21 0 0,0
01.08.2020 11:00:00 14,6 11,3 - - 15 8 - - W 1012,5 30 0 0,0
01.08.2020 10:00:00 14,5 12,1 15,2 13,7 11 6 - - W 1011,8 40 0 0,0
01.08.2020 09:00:00 13,8 12,5 - - 9 5 - - W 1011,4 50 0 0,0
01.08.2020 08:00:00 13,4 13,0 - - 13 7 - - W 1011,1 50 0 0,2
01.08.2020 07:00:00 14,0 13,8 - - 13 7 - - S 1010,6 3,3 0 0,0
01.08.2020 06:00:00 14,0 13,8 - - 11 6 - - S 1010,3 6 0 0,0
01.08.2020 05:00:00 14,2 14,1 - - 9 5 - - SSW 1010,0 3,3 0 0,0
01.08.2020 04:00:00 14,5 14,3 - - 13 7 - - SSW 1009,8 2,6 0 0,0
01.08.2020 03:00:00 14,6 14,4 - - 5 3 - - S 1009,6 4,7 0 0,0
01.08.2020 02:00:00 14,7 14,6 - - 5 3 - - S 1009,3 5 0 0,0
01.08.2020 01:00:00 14,8 14,7 - - 16 9 - - SSW 1009,2 0,5 - 0,2
01.08.2020 00:00:00 15,2 15,0 - - 18 10 - - S 1009,1 0,2 0 0,0
31.07.2020 23:00:00 15,7 15,3 - - 16 9 - - SSW 1008,6 10 0 1,0
31.07.2020 22:00:00 16,2 15,9 - - 22 12 - - SSW 1008,3 6 0 0,0
31.07.2020 21:00:00 16,7 15,6 - - 13 7 - - S 1008,3 3,3 0 0,0
31.07.2020 20:00:00 17,9 14,7 - - 13 7 - - SSE 1007,8 40 24 0,0
31.07.2020 19:00:00 20,2 13,8 - - 11 6 - - S 1007,6 45 18 0,0
31.07.2020 18:00:00 20,7 13,4 - - 22 12 - - S 1007,5 35 24 0,0
31.07.2020 17:00:00 23,3 13,5 - - 18 10 - - S 1006,8 45 24 0,0
31.07.2020 16:00:00 24,3 13,9 - - 29 16 - - SSW 1007,5 40 48 0,0
31.07.2020 15:00:00 25,9 13,8 - - 26 14 - - SSW 1006,9 21 54 0,0
31.07.2020 14:00:00 26,0 13,9 - - 21 11 - - SSE 1006,8 45 12 0,0
31.07.2020 13:00:00 26,0 14,9 - - 18 10 - - SE 1007,4 40 60 0,0
31.07.2020 12:00:00 23,7 13,9 - - 8 4 - - SE 1008,1 26 30 0,0
31.07.2020 11:00:00 20,0 14,7 - - 2 1 - - NNW 1009,3 30 0 0,0
31.07.2020 10:00:00 18,5 13,7 15,0 13,7 4 2 - - SE 1010,1 35 36 0,0
31.07.2020 09:00:00 18,0 14,2 - - 4 2 - - S 1010,6 30 60 0,0
31.07.2020 08:00:00 14,0 14,0 - - 4 2 - - NW 1011,4 45 54 0,0
31.07.2020 07:00:00 10,4 10,4 - - 4 2 - - NNW 1012,0 12 36 0,0
31.07.2020 06:00:00 9,5 9,4 - - 5 3 - - NW 1012,5 4,9 0 0,0
31.07.2020 05:00:00 9,5 9,3 - - 5 3 - - NNW 1012,7 1,6 0 0,0
31.07.2020 04:00:00 10,1 9,9 - - 5 3 - - NW 1013,0 3,2 0 0,0
31.07.2020 03:00:00 10,5 10,2 - - 5 3 - - NW 1013,6 5 0 0,0
31.07.2020 02:00:00 11,2 11,0 - - 8 4 - - NW 1014,2 10 0 0,0
31.07.2020 01:00:00 11,4 11,1 - - 5 3 - - NW 1014,6 10 - 0,0
31.07.2020 00:00:00 12,3 11,8 - - 5 3 - - NNW 1014,9 15 0 0,0
30.07.2020 23:00:00 12,8 12,2 - - 2 1 - - NNW 1015,2 21 0 0,0
30.07.2020 22:00:00 13,2 12,7 - - 8 4 - - NNW 1015,4 24 0 0,0
30.07.2020 21:00:00 13,9 13,3 - - 4 2 - - NNW 1015,4 15 0 0,0
30.07.2020 20:00:00 14,8 13,5 - - 2 1 - - SE 1015,4 20 0 0,0
30.07.2020 19:00:00 15,1 13,7 - - 4 2 - - SSE 1015,4 24 0 0,2
30.07.2020 18:00:00 14,8 13,5 - - 5 3 - - ESE 1015,7 25 0 0,0
30.07.2020 17:00:00 14,8 13,6 - - 11 6 - - S 1016,3 45 0 0,2
30.07.2020 16:00:00 14,2 13,6 - - 18 10 - - S 1016,7 5 0 0,6
30.07.2020 15:00:00 14,2 13,4 - - 16 9 - - S 1016,2 9 0 0,2
30.07.2020 14:00:00 14,0 13,6 - - 15 8 - - S 1016,2 2,9 0 0,4
30.07.2020 13:00:00 13,8 13,6 - - 15 8 - - S 1016,6 2,9 0 0,6
30.07.2020 12:00:00 13,1 12,9 - - 15 8 - - SSE 1016,5 3,0 0 0,4
30.07.2020 11:00:00 12,4 12,1 - - 13 7 - - SSE 1016,6 5 0 1,0
30.07.2020 10:00:00 11,7 11,5 15,2 13,7 9 5 - - SSE 1016,8 3,5 0 0,6
30.07.2020 09:00:00 10,5 10,3 - - 4 2 - - SSE 1017,2 4,3 0 0,2
30.07.2020 08:00:00 9,5 9,3 - - 0 0 - - N 1017,4 6 0 0,4
30.07.2020 07:00:00 8,9 8,7 - - 5 3 - - N 1017,5 2,6 0 0,2
30.07.2020 06:00:00 8,5 8,2 - - 2 1 - - NW 1017,5 8 0 0,0
30.07.2020 05:00:00 7,7 7,3 - - 2 1 - - NE 1017,5 5 0 0,2
30.07.2020 04:00:00 7,3 6,7 - - 2 1 - - NW 1018,0 45 0 0,0
30.07.2020 03:00:00 6,8 6,2 - - 2 1 - - NW 1018,3 30 0 0,0
30.07.2020 02:00:00 6,5 5,8 - - 4 2 - - NNW 1018,6 26 0 0,0
30.07.2020 01:00:00 7,3 6,3 - - 4 2 - - NW 1018,8 30 - 0,0
30.07.2020 00:00:00 8,6 7,1 - - 2 1 - - NE 1018,7 35 0 0,0
29.07.2020 23:00:00 9,7 7,1 - - 5 3 - - SW 1018,9 45 0 0,0
29.07.2020 22:00:00 10,9 7,3 - - 15 8 - - SSW 1018,8 40 0 0,0
29.07.2020 21:00:00 11,8 8,3 - - 15 8 - - SSW 1018,4 45 0 0,0
29.07.2020 20:00:00 12,7 8,4 - - 18 10 - - SW 1018,0 30 0 0,0
29.07.2020 19:00:00 14,6 7,1 - - 11 6 - - W 1017,6 45 0 0,0
29.07.2020 18:00:00 14,9 7,1 - - 11 6 - - W 1017,7 30 18 0,0
29.07.2020 17:00:00 16,2 7,5 - - 15 8 - - W 1017,4 40 18 0,0
29.07.2020 16:00:00 15,3 6,9 - - 16 9 - - SW 1017,1 40 30 0,0
29.07.2020 15:00:00 15,8 7,5 - - 18 10 - - W 1017,3 40 30 0,0

tt = temperature
td = dewpoint
tt -20cm = temperature -20cm
tt -100cm = temperature -100cm
ff = wind speed
fx = gusts
dd = wind direction
ppp = reduced air pressure
vv = visibility
sd = sunshine duration
rr = precipitation

Next stations